User: anonymous   Login
Location: Observatorio Las Palmas
(29.0667°N, 110.9333°W)
Time: 21:41:08
(UTC-07:00)
Language:

NOAA 19 - Orbit

View from above orbital plane
View from above orbital plane
View from above satellite
View from above satellite

Ground track
Ground track

The orbit data is extracted from the following two-line orbital elements,

1 33591U 09005A   17018.55794437  .00000100  00000-0  79499-4 0  9999
2 33591  99.0722 343.4278 0013689 337.0446  23.0111 14.12145518409538
Epoch (UTC): 18 January 2017 13:23:26
Eccentricity: 0.0013689
inclination: 99.0722°
perigee height: 842 km
apogee height: 862 km
right ascension of ascending node: 343.4278°
argument of perigee: 337.0446°
revolutions per day: 14.12145518
mean anomaly at epoch: 23.0111°
orbit number at epoch: 40953

The dashed part of the orbit path shows where the satellite is in the earth's shadow,  

DLR